Regional Weather Roundup
Issued by NWS Little Rock, AR

Home | Current Version | Previous Version | Graphics & Text | Print | Product List | Glossary On
Versions: 1 2 3 4 5 6 7 8 9 10 11 12 13 14 15 16 17 18 19 20 21 22 23 24 25 26 27 28 29 30 31 32 33 34 35 36 37 38 39 40 41 42 43 44 45 46 47 48 49
000
ASUS44 KLZK 230105
RWRLZK

WEATHER ROUNDUP FOR ARKANSAS
NATIONAL WEATHER SERVICE LITTLE ROCK AR
800 PM CDT FRI MAY 22 2015

NOTE: "FAIR" INDICATES FEW OR NO CLOUDS BELOW 12,000 FEET WITH NO
SIGNIFICANT WEATHER AND/OR OBSTRUCTIONS TO VISIBILITY.

ARZ001-003-010-029-230200-
NORTHWEST ARKANSAS

CITY           SKY/WX    TMP DP  RH WIND       PRES   REMARKS
FAYETTEVILLE   MOCLDY    61  49  64 E6        30.19R
FORT SMITH     LGT RAIN  61  56  83 NE9       30.17S
HARRISON       CLOUDY    61  50  67 SE15G21   30.21S
BENTONVILLE    CLOUDY    64  46  52 SE9       30.19R
ROGERS         CLOUDY    63  51  65 MISG      30.19R
SILOAM SPGS    CLOUDY    63  48  59 S5        30.20R
HIGHFILL       CLOUDY    63  49  60 S7        30.19R
SPRINGDALE     MOCLDY    63  48  59 SE7G14    30.21R
$$

ARZ004-005-016-230200-
NORTH CENTRAL ARKANSAS

CITY           SKY/WX    TMP DP  RH WIND       PRES   REMARKS
BATESVILLE     CLOUDY    63  54  72 CALM      30.24R
FLIPPIN        CLOUDY    63  52  67 SE5       30.21S
MTN HOME       CLOUDY    63  49  60 SE6       30.22R
$$

ARZ040-041-230200-
WEST CENTRAL ARKANSAS

CITY           SKY/WX    TMP DP  RH WIND       PRES   REMARKS
MENA           CLOUDY    61  59  94 E3        30.19S
MOUNT IDA      LGT RAIN  60  57  89 SE5       30.17F
$$

ARZ009-017-025-026-028-230200-
NORTHEAST ARKANSAS

CITY           SKY/WX    TMP DP  RH WIND       PRES   REMARKS
CORNING          N/A     64  54  68 E3        30.25R
JONESBORO      CLOUDY    65  52  62 E5        30.23R
NEWPORT        CLOUDY    66  56  70 E3        30.25R
WALNUT RIDGE   CLOUDY    66  52  59 NE6       30.25R
BLYTHEVILLE    MOCLDY    67  53  61 SE3       30.24R
$$

ARZ022-023-033-042-044-230200-
CENTRAL ARKANSAS

CITY           SKY/WX    TMP DP  RH WIND       PRES   REMARKS
LITTLE ROCK    CLOUDY    67  52  58 E3        30.23R
N LITTLE ROCK  MOCLDY    67  55  65 E5        30.23R
JACKSONVILLE   CLOUDY    66  58  73 CALM      30.23R
HOT SPRINGS    LGT RAIN  63  57  81 E7        30.22R
RUSSELLVILLE   CLOUDY    63  56  78 CALM      30.19F
CLINTON        FAIR      64  55  72 E3        30.23F
$$

ARZ036-230200-
EAST ARKANSAS

CITY           SKY/WX    TMP DP  RH WIND       PRES   REMARKS
WEST MEMPHIS   MOCLDY    67  52  58 E7        30.20F
$$

ARZ050-053-066-070-073-230200-
SOUTHWEST ARKANSAS

CITY           SKY/WX    TMP DP  RH WIND       PRES   REMARKS
ARKADELPHIA    FAIR      67  61  81 N5        30.23R
CAMDEN         PTCLDY    66  57  72 CALM      30.20R
TEXARKANA      CLOUDY    69  59  70 E3        30.16S
EL DORADO      PTCLDY    67  57  70 NE5       30.20R
DE QUEEN       LGT RAIN  62  59  90 NE5       30.15S
$$

ARZ056-057-069-230200-
SOUTHEAST ARKANSAS

CITY           SKY/WX    TMP DP  RH WIND       PRES   REMARKS
PINE BLUFF     MOCLDY    68  54  60 NE6       30.21R
STUTTGART      CLOUDY    68  54  60 E3        30.23R
MONTICELLO     PTCLDY    67  58  72 CALM      30.19R

$$




USA.gov is the U.S. government's official web portal to all federal, state and local government web resources and services.